Miscellaneous Local Product
Issued by NWS North Platte, NE

Home | Current Version | Previous Version | Graphics & Text | Print | Product List | Glossary On
Versions: 1 2 3 4 5 6 7 8 9 10 11 12 13 14 15 16 17 18 19 20 21 22 23 24 25 26 27 28 29 30 31 32 33 34 35 36 37 38 39 40 41 42 43 44 45 46 47 48 49 50
000
AXUS43 KLBF 270310
MISLBF


WESTERN AND NORTH CENTRAL NEBRASKA HOURLY WEATHER ROUNDUP
NATIONAL WEATHER SERVICE NORTH PLATTE NE
1000 PM CDT SUN MAR 26 2017

NOTE: "FAIR" INDICATES FEW OR NO CLOUDS BELOW 12,000 FEET WITH NO
SIGNIFICANT WEATHER AND/OR OBSTRUCTIONS TO VISIBILITY.

NOTE: STATIONS NOT REPORTING VARIABLES SUCH AS SKY/WEATHER OR
PRESSURE ARE PROVIDED BY RAWS AND APRS NETWORKS AND ARE NOT UNDER
NATIONAL WEATHER SERVICE QUALITY CONTROL.

...OBSERVATIONS IN AND NEAR THE EASTERN PANHANDLE OF NEBRASKA...

CITY           SKY/WX    TMP DP  RH WIND       PRES   REMARKS
PINE RIDGE     CLOUDY    44  39  82 CALM      29.95R
CHADRON        CLEAR     39  36  89 NE5       29.95R
ALLIANCE       CLOUDY    43  38  82 NW6       29.95R
SIDNEY         CLEAR     41  35  79 NW10      29.96R
CRESCENT LAKE    N/A     42  37  82 N6          N/A
$$

...OBSERVATIONS IN NORTHERN NEBRASKA AND FAR SOUTHERN SOUTH DAKOTA...

CITY           SKY/WX    TMP DP  RH WIND       PRES   REMARKS
WINNER         FAIR      40  35  83 E6        29.95S
VALENTINE      CLOUDY    43  35  73 NE3       29.96R
THEDFORD       PTCLDY    47  41  80 E8        29.94R
AINSWORTH      CLOUDY    42  41  97 SE7       29.95S
O`NEILL        CLOUDY    45  41  88 CALM      29.97S
ORD            CLOUDY    44  40  85 E5        29.95R
BROKEN BOW     MOCLDY    47  43  86 SE6       29.94R
VALENTINE NWR    N/A     45  38  76 E3          N/A
HALSEY           N/A     49  41  75 E6G13       N/A
BUTTE            N/A     41  39  93 SE3         N/A
CHAMBERS         N/A     44  40  87 CALM        N/A
EWING            N/A     44  42  92 CALM        N/A
$$

...OBSERVATIONS IN SOUTHWEST NEBRASKA AND FAR NORTHEAST COLORADO...

CITY           SKY/WX    TMP DP  RH WIND       PRES   REMARKS
WRAY           FAIR      46  37  71 CALM      29.92
HOLYOKE        FAIR      43  37  81 W3        29.94R
IMPERIAL       MOCLDY    45  41  86 SW7       29.92R
OGALLALA       CLOUDY    50  38  63 CALM      29.91S
NORTH PLATTE   CLOUDY    45  39  79 SE6       29.92R
MCCOOK         CLOUDY    46  42  86 SW6       29.93R
LEXINGTON      CLOUDY    46  42  84 S3        29.93S
STAPLETON        N/A     48  40  75 CALM        N/A
GOTHENBURG       N/A     48  41  77 SE8         N/A
CALLAWAY         N/A     47  42  84 SE12        N/A
$$

...OBSERVATIONS IN CENTRAL LINCOLN COUNTY AREA...

CITY           SKY/WX    TMP DP  RH WIND       PRES   REMARKS
N.P. AIRPORT   CLOUDY    45  39  79 SE6       29.92R
N.P. DOWNTOWN    N/A     49  42  76 CALM        N/A
N.P. SOUTHEAST   N/A     47  40  77 E3          N/A
N.P. HILLCREST   N/A     47  41  81 SE7         N/A
$$

...SOME OBSERVATIONS FROM AROUND THE REGION...

CITY           SKY/WX    TMP DP  RH WIND       PRES   REMARKS
DENVER         CLOUDY    45  35  68 N6        29.98R
LIMON          CLEAR     36  33  89 CALM      29.99R
ASPEN          CLOUDY    39  27  62 SW5       30.01R
LARAMIE        CLOUDY    35  29  78 S5        29.96R WCI  31
CASPER         CLOUDY    44  33  65 E3        29.90S
CHEYENNE       PTCLDY    37  32  82 CALM      29.97R
SCOTTSBLUFF    CLEAR     39  32  76 CALM      29.95R
GRAND ISLAND   CLOUDY    46  45  96 E5        29.94F
OMAHA          CLOUDY    48  41  76 CALM      29.96F
SIOUX FALLS    CLOUDY    44  39  82 CALM      29.98R
PIERRE         PTCLDY    42  37  82 S5        29.93R
RAPID CITY     CLOUDY    38  38 100 W3        29.93S
BISMARCK       CLEAR     42  36  79 SE6       29.91F
KANSAS CITY    CLOUDY    49  45  86 NE9       29.91F
HILL CITY      CLOUDY    46  45  96 N5        29.95R
WICHITA        TSTM      51  50  96 NE13      29.80F
DODGE CITY     CLOUDY    45  43  93 N15       29.91R
OKLAHOMA CITY  PTCLDY    63  59  87 SE14      29.69R
DALLAS         CLOUDY    78  60  53 S21G29    29.74R
AMARILLO       CLEAR     45  37  73 N12       29.94R
$$




USA.gov is the U.S. government's official web portal to all federal, state and local government web resources and services.